Regional Weather Roundup
Issued by NWS

Home | Current Version | Previous Version | Text Only | Print | Product List | Glossary On
Versions: 1 2 3 4 5 6 7 8 9 10 11 12 13 14 15 16 17 18 19 20 21 22 23 24 25 26 27 28 29 30 31 32 33 34 35 36 37 38 39 40 41 42 43 44 45 46 47 48 49 50
000
ASHW40 PHFO 230043
RWRHI

WEATHER ROUNDUP FOR HAWAII
NATIONAL WEATHER SERVICE HONOLULU HI
200 PM HST MON SEP 22 2014

THIS IS AN AUTOMATED REPORT THAT HAS NOT BEEN QUALITY CONTROLLED.

NOTE..."FAIR" INDICATES FEW OR NO CLOUDS BELOW 12,000 FEET WITH NO
SIGNIFICANT WEATHER AND/OR OBSTRUCTIONS TO VISIBILITY.

* - THESE SITES REPORT LIMITED FIELDS

HIZ001>004-230100-
KAUAI-NIIHAU-

CITY           SKY/WX    TMP DP  RH WIND       PRES   REMARKS
LIHUE APT      SUNNY     88  71  57 NE13      30.03F HX  94
PORT ALLEN*      N/A     86 N/A N/A W7G14       N/A
POIPU*           N/A     88 N/A N/A NE9G18      N/A
PRINCEVILLE*   NOT AVBL
KOKOLE POINT*    N/A     88 N/A N/A MISG        N/A
MOLOAA DAIRY*  NOT AVBL
WAIMEA HTS*      N/A     90  72  55 SW8G14      N/A  HX  96
PUU OPAE*        N/A     81  68  65 CALM        N/A
PUU LUA*       NOT AVBL
MAKAHA RIDGE*    N/A     88  68  51 SW1G8       N/A  HX  91
$$

HIZ005>011-230100-
OAHU-

CITY           SKY/WX    TMP DP  RH WIND       PRES   REMARKS
HONOLULU       MOSUNNY   90  66  45 E18G25    29.99F HX  92
KALAELOA       PTSUNNY   89  67  47 VRB6      30.00F HX  92
KANEOHE MCB    MOSUNNY   84  72  65 E12       30.02F
WHEELER FIELD  FAIR      86  68  55 E13G21    30.02F
BELLOWS*         N/A    N/A N/A N/A NE14        N/A
KAHUKU*          N/A    N/A N/A N/A NE9G21      N/A
WHEELER*       NOT AVBL
WAIANAE HARBOR NOT AVBL
DILLINGHAM*      N/A     97  70  41 NE8G18      N/A  HX 103
KAHUKU TRN*      N/A     84  72  65 E12G24      N/A
KAWAILOA*      NOT AVBL
KII*             N/A     84  73  70 E15         N/A  HX  91
MAKUA RANGE*     N/A     90  70  51 SW5G10      N/A  HX  95
OAHU FOREST NW   N/A     72  68  88 N15G28      N/A
SCHOFIELD BRK*   N/A     84  66  54 MISG        N/A
SCHOFIELD S*   NOT AVBL
WAIANAE VLY*     N/A     93  61  33 SE8G18      N/A  HX  93
KUAOKALA*        N/A     82  66  57 E1G7        N/A
HONOULIUULI*   NOT AVBL
MOKUOLOE IS*     N/A    N/A N/A N/A MISG        N/A
PALEHUA*         N/A     95  64  36 CALM        N/A  HX  97
WAIAWA PHB*    NOT AVBL
$$

HIZ012>013-230100-
MOLOKAI-

CITY           SKY/WX    TMP DP  RH WIND       PRES   REMARKS
MOLOKAI AIRPT  MOSUNNY   86  72  62 NE14G25   30.01F HX  92
KALAUPAPA      NOT AVBL
MAKAPULAPAI*     N/A     88  73  62 E18G26      N/A  HX  96
MOLOKAI 1*       N/A     82  68  61 NW3G23      N/A
PUU ALII*        N/A     74  65  74 E2G9        N/A
$$

HIZ016-230100-
KAHOOLAWE-

CITY           SKY/WX    TMP DP  RH WIND       PRES   REMARKS
KAHOOLAWE*       N/A     79 N/A N/A E15G23      N/A
HAKIOAWA*      NOT AVBL
HONOKANAIA*      N/A     89  72  56 E18G32    29.99F HX  96
KANELOA*         N/A     82  70  65 E20G30    29.24F
KEALIALALO*    NOT AVBL
LUA MAKIKA*    NOT AVBL
$$

HIZ014>015-230100-
LANAI-

CITY           SKY/WX    TMP DP  RH WIND       PRES   REMARKS
LANAI CITY     MOSUNNY   82  72  69 E12       30.03
LANAI 1*         N/A     82  75  78 NE22G38     N/A
$$

HIZ017>028-230100-
MAUI-

CITY           SKY/WX    TMP DP  RH WIND       PRES   REMARKS
KAHULUI        MOSUNNY   90  70  51 NE24      29.99F HX  95
KAPALUA-W MAUI MOSUNNY   88  66  48 E16G29    30.00  HX  90
HANA AIRPORT   MOSUNNY   86  70  58 NE7       30.03F HX  90
HANA*            N/A     84 N/A N/A NE6         N/A
HALEAKALA SUMM   N/A     55  19  24 NE18        N/A
MAALAEA BAY*   NOT AVBL
HALEAKALA*     NOT AVBL
KAUPO GAP*       N/A    N/A N/A N/A SW6G18      N/A
KULA 1*          N/A     64  57  78 N8G15       N/A
$$

HIZ023>026-230100-
BIG ISLAND OF HAWAII COAST AND LOWER SLOPES-

CITY           SKY/WX    TMP DP  RH WIND       PRES   REMARKS
KAILUA KONA    PTSUNNY   87  74  64 SW8       29.95F HX  95
HILO           SUNNY     87  71  58 NE14      30.00F HX  93
HONOKAA*       NOT AVBL
KAWAIHAE MWT*    N/A     88 N/A N/A SW9         N/A
KAWAIHAE*        N/A     84 N/A N/A SW13        N/A
SOUTH POINT*     N/A     79 N/A N/A NE17G24     N/A
UPOLU AIRPORT*   N/A    N/A N/A N/A NE22G29     N/A
KAMUELA*       PTCLDY    81  64  57 NE20      30.09F
HAKALAU*         N/A     65  58  77 NE7         N/A
KALOKO-HONOKO*   N/A     88  72  58 SW5G10    29.94F HX  94
PALI 2*          N/A     79  64  61 NE20G29     N/A
KEALAKOMO*       N/A     88  72  58 E23G32      N/A  HX  94
KAUPULEHU*       N/A     90  64  43 SW12G21     N/A  HX  91
KAPAPALA*        N/A     77  70  79 E7G17       N/A
LOWER KAHUKU*  NOT AVBL
PUHE CS*       NOT AVBL
PUHO CS*         N/A     84  72  67 W3G9        N/A
PTA KEAMUKU*     N/A    N/A N/A N/A NE25G38     N/A
WAIKOLOA*        N/A    N/A N/A N/A NE17G26     N/A
$$

HIZ027>028-230100-
BIG ISLAND OF HAWAII INTERIOR AND SUMMMITS-

CITY           SKY/WX    TMP DP  RH WIND       PRES   REMARKS
BRADSHAW FIELD CLOUDY    70  57  64 SW5       30.34F
MK VISITOR CEN NOT AVBL
MAUNA KEA*       N/A     48  23  37 E37         N/A
MAUNA LOA*       N/A    N/A N/A N/A MISG        N/A
MAUNA LOA 1*     N/A    N/A N/A N/A MISG        N/A
PTA KIPUKA*      N/A     72  59  64 NW12G18     N/A
PTA RANGE 17*    N/A     73  57  56 W16G28      N/A
PTA WEST*        N/A     75  61  60 NW20G31     N/A
NENE CABIN*    NOT AVBL
AHUMOA*          N/A     70  62  76 N10G17      N/A
PTA PORTABLE*  NOT AVBL
PUU MALI*      NOT AVBL
$$

HIC003-230100-
NORTHWEST ISLANDS-

CITY           SKY/WX    TMP DP  RH WIND       PRES   REMARKS
MIDWAY ISLAND  SUNNY     90  73  58 E14       30.11F HX  98
MIDWAY NOS*    NOT AVBL
FRENCH FRIGATE NOT AVBL
$$

PHZ110>124-180-230100-
BUOY REPORTS

STATION/POSITION TIME  TEMP    WIND        PRES    WAVE   SWELL
                       AIR SEA DIR/SP/G            HT/PER HT/DIR
                 (UTC) (F)     (DEG/KT/KT) (MB)    (FT/S) (FT/D)
BUOY 51001       NOT AVBL
BUOY 51101       NOT AVBL
BUOY 51100       0000   81 83   90/  6/ 10 1017.4F
BUOY 51003       0000   83 84   80/  8/ 12 1015.1F   4/ 9   3
BUOY 51004       NOT AVBL
BARBERS PT BUOY  NOT AVBL
WAIMEA BAY BUOY  NOT AVBL
KAILUA BAY BUOY  NOT AVBL
LANAI BUOY       NOT AVBL
BARBERS PT 2     NOT AVBL
PAUWELA MAUI     NOT AVBL
HILO             NOT AVBL
KANEOHE BAY BUOY NOT AVBL
HANALEI KAUAI    NOT AVBL
KAHULUI HARBOR   0000   82 83   60/ 10/ 23 1015.4F
HONOLULU HARBOR  0000   87      70/ 10/ 15 1015.7F
KILO NALU        NOT AVBL
HILO HARBOR      0000   85      50/  9/ 14 1015.3F
MOKUOLOE         0000   83 86   50/ 10/ 13 1016.6F
NAWILIWILI       0000      84                N/A
WHOTS BUOY       NOT AVBL
BUOY 51028       NOT AVBL
$$

......................KEY........................................
  SKY/WX - SKY CONDITIONS/PRESENT WEATHER
  TMP    - TEMPERATURE IN FAHRENHEIT
  DWPT   - DEWPOINT IN FAHRENHEIT
  RH     - RELATIVE HUMIDITY IN PERCENT
  WIND   - DIRECTION AND SPEED /MPH FOR ISLANDS...KTS FOR BUOYS/
  PRES   - MEAN SEA LEVEL PRESSURE IN INCHES OF HG
  VSB    - VISIBILITY IN MILES
  HX     - HEAT INDEX
  WCI    - WIND CHILL INDEX
  VRB    - VARIABLE WIND DIRECTION
  N/A    - NOT AVAILABLE



USA.gov is the U.S. government's official web portal to all federal, state and local government web resources and services.